Home > Weather > La-Chaux-de-Fonds > Past weeks

Flag for Switzerland Past Weather in La-Chaux-de-Fonds, Neuchâtel, Switzerland — Yesterday and Last 2 Weeks

Now
55 °F

Clear.


Feels Like: 55 °F
Forecast: 61 / 76 °F
Wind: 1 mph from North

Location: Les Eplatures

Current Time: Aug 27, 2016 at 5:25:24 AM

Latest Report: Aug 27, 2016 at 4:50 AM


Visibility: 10 mi

Pressure: 30.21 "Hg (26.81 "Hg at 1000m altitude)

Humidity: 88%

Dew Point: 52 °F

Location of La-Chaux-de-FondsLocation

Past Weather in La-Chaux-de-Fonds — Graph

°F

La-Chaux-de-Fonds Temperature Yesterday

Maximum temperature yesterday: 84 °F (at 2:50 PM)
Minimum temperature yesterday: 54 °F (at 6:50 AM)
Average temperature yesterday: 70 °F

High & Low Weather Summary for the Past Weeks

 TemperatureHumidityPressure
High84 °F (Aug 25, 3:20 PM)100% (Aug 13, 5:20 AM)30.42 "Hg (Aug 13, 5:20 AM)
Low41 °F (Aug 22, 3:50 AM)35% (Aug 25, 3:50 PM)29.95 "Hg (Aug 17, 5:50 PM)
Average62 °F75%30.20 "Hg
* Reported Aug 12 3:20 AM — Aug 27 3:50 AM, La-Chaux-de-Fonds, Weather by CustomWeather, © 2016

Note: Actual official high and low records may vary slightly from our data, if they occured in-between our weather recording intervals... More about our weather records

Advertising

La-Chaux-de-Fonds Weather History for the Previous 24 Hours

Scroll right to see more
 ConditionsComfort  
Time TempWeatherWind HumidityBarometerVisibility
3:50 AM
Sat, Aug 27
57 °FClear.No wind82%30.21 "Hg10 mi
3:20 AM59 °FClear.No wind82%30.21 "Hg10 mi
2:50 AM59 °FClear.No wind82%30.21 "Hg10 mi
2:20 AM57 °FClear.No wind82%30.21 "Hg10 mi
1:50 AM59 °FClear.No wind77%30.21 "Hg10 mi
1:20 AM57 °FClear.No wind82%30.21 "Hg10 mi
12:50 AM61 °FClear.1 mph77%30.21 "Hg10 mi
12:20 AM61 °FClear.No wind77%30.21 "Hg10 mi
11:50 PM
Fri, Aug 26
61 °FClear.No wind72%30.21 "Hg10 mi
11:20 PM63 °FClear.No wind68%30.24 "Hg10 mi
10:50 PM64 °FClear.No wind64%30.24 "Hg10 mi
10:20 PM64 °FSunny.No wind68%30.21 "Hg10 mi
9:50 PM66 °FSunny.No wind64%30.21 "Hg10 mi
9:20 PM68 °FSunny.No wind64%30.21 "Hg10 mi
8:50 PM70 °FSunny.2 mph60%30.21 "Hg10 mi
8:20 PM72 °FSunny.3 mph57%30.21 "Hg10 mi
7:50 PM77 °FPassing clouds.6 mph47%30.18 "HgN/A
7:20 PM79 °FWarm.7 mph48%30.18 "HgN/A
6:50 PM82 °FPassing clouds.5 mph45%30.18 "HgN/A
6:20 PM82 °FClear.7 mph48%30.18 "HgN/A
5:50 PM82 °FPassing clouds.7 mph40%30.18 "HgN/A
5:20 PM84 °FPassing clouds.8 mph35%30.18 "HgN/A
4:50 PM84 °FPassing clouds.5 mph37%30.18 "HgN/A
4:20 PM84 °FPassing clouds.8 mph35%30.18 "HgN/A
3:50 PM84 °FPassing clouds.7 mph37%30.21 "HgN/A
3:20 PM82 °FSunny.6 mph40%30.21 "Hg10 mi
2:50 PM84 °FPassing clouds.6 mph40%30.21 "HgN/A
2:20 PM82 °FPassing clouds.6 mph40%30.21 "HgN/A
1:50 PM82 °FPassing clouds.6 mph40%30.21 "HgN/A
1:20 PM82 °FPassing clouds.6 mph42%30.21 "HgN/A
12:50 PM81 °FPassing clouds.7 mph42%30.21 "HgN/A
12:20 PM81 °FSunny.3 mph45%30.21 "Hg10 mi
11:50 AM81 °FPassing clouds.5 mph39%30.21 "HgN/A
11:20 AM79 °FPassing clouds.5 mph42%30.21 "HgN/A
10:50 AM79 °FPassing clouds.3 mph48%30.21 "HgN/A
10:20 AM79 °FSunny.2 mph45%30.21 "Hg10 mi
9:50 AM73 °FSunny.1 mph57%30.21 "Hg10 mi
9:20 AM70 °FSunny.No wind64%30.21 "Hg10 mi
8:50 AM66 °FSunny.No wind68%30.21 "Hg10 mi
8:20 AM61 °FClear.No wind83%30.21 "Hg10 mi
7:50 AM57 °FClear.No wind82%30.21 "Hg10 mi
7:20 AM55 °FClear.No wind88%30.21 "Hg10 mi
6:50 AM54 °FClear.No wind88%30.21 "Hg10 mi
6:20 AM55 °FClear.No wind88%30.21 "Hg10 mi
5:50 AM55 °FClear.No wind82%30.18 "Hg10 mi
5:20 AM55 °FClear.No wind88%30.18 "Hg10 mi
Weather by CustomWeather, © 2016

See weather overviewHow to use our weather pages